User: anonymous   Login
Location: Humble ISD Astronomical Observatory
(29.9680°N, 95.2620°W)
Time: 13:24:04
(UTC-05:00)
Language:

Tiangong 2 - Orbit

View from above orbital plane
View from above orbital plane
View from above satellite
View from above satellite

Ground track
Ground track

The orbit data is extracted from the following two-line orbital elements,

1 41765U 16057A   19114.51815131  .00003975  00000-0  49845-4 0  9991
2 41765  42.7828 287.0011 0008762 259.0788 155.0223 15.61318951148659
Epoch (UTC): 24 April 2019 12:26:08
Eccentricity: 0.0008762
inclination: 42.7828°
perigee height: 378 km
apogee height: 390 km
right ascension of ascending node: 287.0011°
argument of perigee: 259.0788°
revolutions per day: 15.61318951
mean anomaly at epoch: 155.0223°
orbit number at epoch: 14865

The dashed part of the orbit path shows where the satellite is in the earth's shadow,  

DLR